Showing default

LASARSAT, 62391

Orbit data source: Space-Track

LASARSAT, 62391 is a Czech payload satellite in LEO that was launched on Sat, 21 Dec 2024 UTC via an FALCON 9 launch vehicle from the Air Force Western Test Range (AFWTR). Payload-class satellites include a variety of spacecraft equipped with specific instruments for various scientific and technological missions. These include communications satellites like Starlink; space stations such as the ISS; scientific satellites like the Hubble; Earth observation satellites from companies like Planet Labs, Umbra, and HawkEye 360; GPS; miniature CubeSats for education and research; and military/defense satellites.

Loading next visibility...
Identifier
62391, 2024-247Q
Orbit
LEO
Country
Flag of CZCZ / CZE
Related business
None
Manufacturer
LASAR
Mission
Operational Amateur Technology
Bus & Motor
CUBESAT 1U, Unknown motor
Mass
1 kg wet, 1 kg dry
Launch date (UTC)
2024-12-21 (1 year ago)
Launch vehicle
FALCON 9
Launch site
Air Force Western Test Range (AFWTR)
Object type
Payload
Rocket body
Debris
Shape & HBR
Box, 0.1 m
Radar Cross Section
0.015 m², Small (<0.1 m²)

Expand to show TLE details & history
Last TLE update: 14 hours ago

TLE from 14 hours ago
0 LASARSAT
1 62391U 24247Q   26036.68676005  .00044703  00000-0  11712-2 0  9997
2 62391  44.9760 276.6095 0002388 214.0199 146.0535 15.38045753 63010
Epoch: 2026-02-05T16:28Z
TLE epoch observation values (Epoch: 2026-02-05T16:28:56.068Z)
Latitude
-0°
Longitude
-106.45954°
Altitude
453.238 km
Speed
7.641 km/s
True Right ascension
18h 26m 26s
True Declination
0° 00' 00"
Sunlit
Object was in daylight at epoch
Visualization orbit readout
Latitude
Unknown
Longitude
Unknown
Altitude
Unknown
Speed
Unknown
Apparent Right ascension
Unknown
Apparent Declination
Unknown
Sunlit
N/A
Visualization observer readout
Local Sidereal Time
08:21:08
Azimuth
Unknown
Elevation
Unknown
Doppler factor
Unknown
Orbital elements
Apogee altitude
455.141 km
Perigee altitude
451.878 km
Semi-major axis
6,831.646 km
Eccentricity
0.00024
Inclination
44.976°
RAAN
276.6095°
Arg. of periapsis
214.0199°
True anomaly
146.06878°
Mean anomaly
146.0535°
Eccentric anomaly
146.06114°
Mean motion
3.84375 °/min
Orbital period
93.66 mins
BSTAR
0.0011712
Loading maneuver chart data...
Computing Atmospheric mass density...
Loading historical data...
Loading historical data...
Loading historical data...
Loading historical data...
Loading historical data...
Loading historical data...
Loading historical data...

Documentation

Showing up to 5 results
|